DH8TOM-4 Weather Reports


time (UTC)temp
F
wind
direction
speed
knots
gust
knots
rain 1hr
in
rain 24hr
in
rain mn
in
humidity
%
barometer
mb
20260506014609 53 0.0 0.0 0.00 0.00 0.00 100 1003.2
20260506014107 53 0.0 0.0 0.00 0.00 0.00 100 1003.2
20260506013607 53 0.0 0.0 0.00 0.00 0.00 100 1003.2
20260506013106 53 0.0 0.0 0.00 0.00 0.00 100 1003.2
20260506012605 53 0.0 0.0 0.00 0.00 0.00 100 1003.2
20260506012103 53 0.0 0.0 0.00 0.00 0.00 100 1003.3
20260506011602 53 0.0 0.0 0.00 0.00 0.00 100 1003.3
20260506011102 53 0.0 0.0 0.00 0.00 0.00 100 1003.3
20260506010600 53 0.0 0.0 0.00 0.00 0.00 100 1003.4
20260506010059 53 0.0 0.0 0.00 0.00 0.00 100 1003.4
20260506005559 53 0.0 0.0 0.00 0.00 0.00 100 1003.4
20260506005058 53 0.0 0.0 0.00 0.00 0.00 100 1003.4
20260506004556 53 0.0 0.0 0.00 0.00 0.00 100 1003.5
20260506004056 53 0.0 0.0 0.00 0.00 0.00 100 1003.5
20260506003555 53 0.0 0.0 0.00 0.00 0.00 100 1003.7
20260506003053 53 0.0 0.0 0.00 0.00 0.00 100 1003.7
20260506002553 53 0.0 0.0 0.00 0.00 0.00 100 1003.7
20260506002051 53 0.0 0.0 0.00 0.00 0.00 100 1003.9
20260506001550 53 0.0 0.0 0.00 0.00 0.00 100 1003.9
20260506001050 53 0.0 0.0 0.00 0.00 0.00 100 1003.9
20260506000548 53 0.0 0.0 0.00 0.00 0.00 100 1004.0
20260506000047 53 0.0 0.0 0.00 0.00 0.00 100 1004.0
20260505235547 53 0.0 0.0 0.00 0.00 0.00 100 1004.2
20260505235045 53 0.0 0.0 0.00 0.00 0.00 100 1004.2
20260505234544 53 0.0 0.0 0.00 0.00 0.00 100 1004.2
20260505234044 53 0.0 0.0 0.00 0.00 0.00 100 1004.2
20260505233543 53 0.0 0.0 0.00 0.00 0.00 100 1004.2
20260505233041 53 0.0 0.0 0.00 0.00 0.00 100 1004.2
20260505232541 53 0.0 0.0 0.00 0.00 0.00 100 1004.3
20260505232039 53 0.0 0.0 0.00 0.00 0.00 100 1004.3
20260505231538 53 0.0 0.0 0.00 0.00 0.00 100 1004.3
20260505231038 53 0.0 0.0 0.00 0.00 0.00 100 1004.3
20260505230536 53 0.0 0.0 0.00 0.00 0.00 100 1004.4
20260505230035 53 0.0 0.0 0.00 0.00 0.00 100 1004.4
20260505225535 53 0.0 0.0 0.00 0.00 0.00 100 1004.5
20260505225033 53 0.0 0.0 0.00 0.00 0.00 100 1004.6
20260505224532 53 0.0 0.0 0.00 0.00 0.00 100 1004.6
20260505224032 53 0.0 0.0 0.00 0.00 0.00 100 1004.6
20260505223530 53 0.0 0.0 0.00 0.00 0.00 100 1004.6
20260505223030 53 0.0 0.0 0.00 0.00 0.00 100 1004.4
20260505222528 53 0.0 0.0 0.00 0.00 0.00 100 1004.4
20260505222028 53 0.0 0.0 0.00 0.00 0.00 100 1004.3
20260505221526 53 0.0 0.0 0.00 0.00 0.00 100 1004.3
20260505221026 53 0.0 0.0 0.00 0.00 0.00 100 1004.3
20260505220023 53 0.0 0.0 0.00 0.00 0.00 100 1004.4
20260505215523 53 0.0 0.0 0.00 0.00 0.00 100 1004.8
20260505215021 53 0.0 0.0 0.00 0.00 0.00 100 1005.2
20260505214520 53 0.0 0.0 0.00 0.00 0.00 100 1005.2
20260505214020 53 0.0 0.0 0.00 0.00 0.00 100 1005.2
20260505213518 53 0.0 0.0 0.00 0.00 0.00 100 1005.2
20260505213017 53 0.0 0.0 0.00 0.00 0.00 100 1005.2
20260505212517 53 0.0 0.0 0.00 0.00 0.00 100 1005.2
20260505212015 54 0.0 0.0 0.00 0.00 0.00 99 1005.4
20260505211014 55 0.0 0.0 0.00 0.00 0.00 90 1005.6
20260505210012 55 0.0 0.0 0.00 0.00 0.00 82 1005.7
20260505205009 56 0.0 0.0 0.00 0.00 0.00 81 1005.7
20260505204007 56 0.0 0.0 0.00 0.00 0.00 80 1005.6
20260505203005 58 0.0 0.0 0.00 0.00 0.00 78 1005.7
20260505202003 60 0.0 0.0 0.00 0.00 0.00 79 1005.7
20260505201002 60 0.0 0.0 0.00 0.00 0.00 80 1005.4
20260505200500 60 0.0 0.0 0.00 0.00 0.00 80 1005.3
20260505200000 60 0.0 0.0 0.00 0.00 0.00 80 1005.3
20260505195459 60 0.0 0.0 0.00 0.00 0.00 79 1004.8
20260505194957 60 0.0 0.0 0.00 0.00 0.00 79 1004.8
20260505194457 60 0.0 0.0 0.00 0.00 0.00 79 1004.8
20260505193956 60 0.0 0.0 0.00 0.00 0.00 79 1004.3
20260505193454 61 0.0 0.0 0.00 0.00 0.00 79 1004.0
20260505192954 61 0.0 0.0 0.00 0.00 0.00 79 1004.0
20260505192453 61 0.0 0.0 0.00 0.00 0.00 79 1004.0
20260505191951 61 0.0 0.0 0.00 0.00 0.00 79 1003.9
20260505191450 61 0.0 0.0 0.00 0.00 0.00 79 1003.9
20260505190950 61 0.0 0.0 0.00 0.00 0.00 78 1004.0
20260505190448 62 0.0 0.0 0.00 0.00 0.00 78 1004.0
20260505185947 62 0.0 0.0 0.00 0.00 0.00 78 1004.0
20260505185447 62 0.0 0.0 0.00 0.00 0.00 78 1004.0
20260505184945 62 0.0 0.0 0.00 0.00 0.00 78 1004.1
20260505184444 62 0.0 0.0 0.00 0.00 0.00 78 1004.3
20260505183944 62 0.0 0.0 0.00 0.00 0.00 78 1004.3
20260505183443 62 0.0 0.0 0.00 0.00 0.00 78 1004.5
20260505182941 62 0.0 0.0 0.00 0.00 0.00 78 1004.5
20260505182441 62 0.0 0.0 0.00 0.00 0.00 78 1004.5
20260505181939 63 0.0 0.0 0.00 0.00 0.00 78 1004.4
20260505181438 63 0.0 0.0 0.00 0.00 0.00 78 1004.4
20260505180938 63 0.0 0.0 0.00 0.00 0.00 77 1004.3
20260505180436 63 0.0 0.0 0.00 0.00 0.00 77 1004.2
20260505175936 63 0.0 0.0 0.00 0.00 0.00 77 1004.2
20260505175435 63 0.0 0.0 0.00 0.00 0.00 77 1004.2
20260505174933 64 0.0 0.0 0.00 0.00 0.00 77 1004.3
20260505174432 64 0.0 0.0 0.00 0.00 0.00 77 1004.3
20260505173932 64 0.0 0.0 0.00 0.00 0.00 77 1004.6
20260505173430 64 0.0 0.0 0.00 0.00 0.00 77 1004.6
20260505172930 64 0.0 0.0 0.00 0.00 0.00 76 1004.7
20260505172429 64 0.0 0.0 0.00 0.00 0.00 76 1004.7
20260505171928 64 0.0 0.0 0.00 0.00 0.00 76 1004.7
20260505171426 65 0.0 0.0 0.00 0.00 0.00 75 1004.7
20260505170925 65 0.0 0.0 0.00 0.00 0.00 75 1004.7
20260505170425 65 0.0 0.0 0.00 0.00 0.00 75 1004.7
20260505165923 65 0.0 0.0 0.00 0.00 0.00 75 1004.8
20260505165422 65 0.0 0.0 0.00 0.00 0.00 75 1004.8
20260505164922 65 0.0 0.0 0.00 0.00 0.00 74 1004.9
20260505164420 65 0.0 0.0 0.00 0.00 0.00 74 1004.9
20260505163920 66 0.0 0.0 0.00 0.00 0.00 73 1005.0
20260505163418 66 0.0 0.0 0.00 0.00 0.00 73 1005.0
20260505162917 66 0.0 0.0 0.00 0.00 0.00 73 1005.3
20260505162416 66 0.0 0.0 0.00 0.00 0.00 72 1005.3
20260505161915 66 0.0 0.0 0.00 0.00 0.00 72 1005.3
20260505161415 66 0.0 0.0 0.00 0.00 0.00 72 1005.3
20260505160913 67 0.0 0.0 0.00 0.00 0.00 72 1005.0
20260505160412 67 0.0 0.0 0.00 0.00 0.00 72 1005.0
20260505152907 67 0.0 0.0 0.00 0.00 0.00 72 1005.6
20260505152404 67 0.0 0.0 0.00 0.00 0.00 70 1005.7
20260505151903 67 0.0 0.0 0.00 0.00 0.00 70 1005.7
20260505151403 67 0.0 0.0 0.00 0.00 0.00 70 1005.7
20260505150901 68 0.0 0.0 0.00 0.00 0.00 70 1005.7
20260505150400 68 0.0 0.0 0.00 0.00 0.00 70 1005.7
20260505140348 68 0.0 0.0 0.00 0.00 0.00 72 1006.1
20260505124833 68 0.0 0.0 0.00 0.00 0.00 77 1006.9
20260505124333 68 0.0 0.0 0.00 0.00 0.00 77 1006.9
20260505123831 68 0.0 0.0 0.00 0.00 0.00 79 1006.9
20260505123330 68 0.0 0.0 0.00 0.00 0.00 78 1007.0
20260505122829 68 0.0 0.0 0.00 0.00 0.00 78 1007.0
20260505122329 68 0.0 0.0 0.00 0.00 0.00 78 1007.0
20260505121827 68 0.0 0.0 0.00 0.00 0.00 80 1007.1
20260505121326 68 0.0 0.0 0.00 0.00 0.00 80 1007.1
20260505120826 68 0.0 0.0 0.00 0.00 0.00 79 1007.1
20260505120324 67 0.0 0.0 0.00 0.00 0.00 80 1007.2
20260505115823 67 0.0 0.0 0.00 0.00 0.00 80 1007.2
20260505115323 67 0.0 0.0 0.00 0.00 0.00 80 1007.2
20260505114821 67 0.0 0.0 0.00 0.00 0.00 80 1007.2
20260505114320 67 0.0 0.0 0.00 0.00 0.00 80 1007.2
20260505113820 67 0.0 0.0 0.00 0.00 0.00 80 1007.3
20260505113318 67 0.0 0.0 0.00 0.00 0.00 80 1007.4
20260505112817 67 0.0 0.0 0.00 0.00 0.00 80 1007.4
20260505112317 67 0.0 0.0 0.00 0.00 0.00 80 1007.4
20260505111815 66 0.0 0.0 0.00 0.00 0.00 81 1007.5
20260505111314 66 0.0 0.0 0.00 0.00 0.00 81 1007.5
20260505110813 66 0.0 0.0 0.00 0.00 0.00 80 1007.6
20260505110313 66 0.0 0.0 0.00 0.00 0.00 80 1007.6
20260505101804 65 0.0 0.0 0.00 0.00 0.00 86 1008.0
20260505101303 64 0.0 0.0 0.00 0.00 0.00 86 1008.2
20260505100801 63 0.0 0.0 0.00 0.00 0.00 87 1008.2
20260505100300 63 0.0 0.0 0.00 0.00 0.00 87 1008.2
20260505095800 63 0.0 0.0 0.00 0.00 0.00 87 1008.2
20260505095258 63 0.0 0.0 0.00 0.00 0.00 86 1008.2
20260505094757 63 0.0 0.0 0.00 0.00 0.00 86 1008.2
20260505094257 63 0.0 0.0 0.00 0.00 0.00 87 1008.3
20260505093756 63 0.0 0.0 0.00 0.00 0.00 87 1008.3
20260505093255 62 0.0 0.0 0.00 0.00 0.00 88 1008.3
20260505092753 62 0.0 0.0 0.00 0.00 0.00 88 1008.3
20260505092253 62 0.0 0.0 0.00 0.00 0.00 89 1008.3
20260505091751 61 0.0 0.0 0.00 0.00 0.00 89 1008.3
20260505091250 61 0.0 0.0 0.00 0.00 0.00 89 1008.3
20260505090750 61 0.0 0.0 0.00 0.00 0.00 89 1008.3
20260505090248 60 0.0 0.0 0.00 0.00 0.00 89 1008.3
20260505085747 60 0.0 0.0 0.00 0.00 0.00 89 1008.3
20260505085248 60 0.0 0.0 0.00 0.00 0.00 91 1008.1
20260505084745 59 0.0 0.0 0.00 0.00 0.00 91 1008.2
20260505084244 59 0.0 0.0 0.00 0.00 0.00 91 1008.2
20260505083744 59 0.0 0.0 0.00 0.00 0.00 90 1008.2
20260505083242 59 0.0 0.0 0.00 0.00 0.00 90 1008.2
20260505082742 59 0.0 0.0 0.00 0.00 0.00 90 1008.2
20260505082242 58 0.0 0.0 0.00 0.00 0.00 90 1008.2
20260505081740 58 0.0 0.0 0.00 0.00 0.00 90 1008.2
20260505081239 58 0.0 0.0 0.00 0.00 0.00 88 1008.2
20260505080738 58 0.0 0.0 0.00 0.00 0.00 88 1008.2
20260505080238 58 0.0 0.0 0.00 0.00 0.00 88 1008.3
20260505075735 58 0.0 0.0 0.00 0.00 0.00 88 1008.3
20260505075236 58 0.0 0.0 0.00 0.00 0.00 88 1008.2
20260505074733 58 0.0 0.0 0.00 0.00 0.00 88 1008.3
20260505074232 58 0.0 0.0 0.00 0.00 0.00 88 1008.3
20260505073733 58 0.0 0.0 0.00 0.00 0.00 88 1008.3
20260505073230 57 0.0 0.0 0.00 0.00 0.00 88 1008.3
20260505072729 57 0.0 0.0 0.00 0.00 0.00 87 1008.3
20260505072229 57 0.0 0.0 0.00 0.00 0.00 87 1008.3
20260505071728 57 0.0 0.0 0.00 0.00 0.00 87 1008.3
20260505071226 57 0.0 0.0 0.00 0.00 0.00 88 1008.3
20260505070725 57 0.0 0.0 0.00 0.00 0.00 88 1008.3
20260505070225 57 0.0 0.0 0.00 0.00 0.00 86 1008.2
20260505065723 57 0.0 0.0 0.00 0.00 0.00 86 1008.4
20260505065223 57 0.0 0.0 0.00 0.00 0.00 86 1008.4
20260505064722 57 0.0 0.0 0.00 0.00 0.00 86 1008.4
20260505064220 57 0.0 0.0 0.00 0.00 0.00 86 1008.5
20260505063719 57 0.0 0.0 0.00 0.00 0.00 85 1008.5
20260505063219 57 0.0 0.0 0.00 0.00 0.00 85 1008.5
20260505062718 57 0.0 0.0 0.00 0.00 0.00 85 1008.5
20260505062216 57 0.0 0.0 0.00 0.00 0.00 85 1008.6
20260505061715 57 0.0 0.0 0.00 0.00 0.00 85 1008.6
20260505061215 57 0.0 0.0 0.00 0.00 0.00 85 1008.6
20260505060713 57 0.0 0.0 0.00 0.00 0.00 85 1008.6
20260505060213 57 0.0 0.0 0.00 0.00 0.00 84 1008.5
20260505055711 57 0.0 0.0 0.00 0.00 0.00 84 1008.5
20260505055211 57 0.0 0.0 0.00 0.00 0.00 83 1008.6
20260505054709 57 0.0 0.0 0.00 0.00 0.00 83 1008.8
20260505054208 57 0.0 0.0 0.00 0.00 0.00 83 1008.8
20260505053708 57 0.0 0.0 0.00 0.00 0.00 83 1008.8
20260505053206 57 0.0 0.0 0.00 0.00 0.00 83 1008.9
20260505052705 57 0.0 0.0 0.00 0.00 0.00 83 1008.9
20260505052205 57 0.0 0.0 0.00 0.00 0.00 83 1008.9
20260505051704 56 0.0 0.0 0.00 0.00 0.00 82 1008.8
20260505051202 56 0.0 0.0 0.00 0.00 0.00 82 1008.8
20260505050702 56 0.0 0.0 0.00 0.00 0.00 82 1008.8
20260505050200 56 0.0 0.0 0.00 0.00 0.00 82 1008.8
20260505041650 57 0.0 0.0 0.00 0.00 0.00 81 1008.9
20260505041150 57 0.0 0.0 0.00 0.00 0.00 81 1008.9
20260505040648 57 0.0 0.0 0.00 0.00 0.00 81 1009.0
20260505040147 57 0.0 0.0 0.00 0.00 0.00 81 1009.0
20260505035647 57 0.0 0.0 0.00 0.00 0.00 81 1009.0
20260505035145 57 0.0 0.0 0.00 0.00 0.00 81 1008.9
20260505034644 57 0.0 0.0 0.00 0.00 0.00 81 1008.9
20260505034144 57 0.0 0.0 0.00 0.00 0.00 81 1009.0
20260505033642 57 0.0 0.0 0.00 0.00 0.00 81 1009.0
20260505033142 57 0.0 0.0 0.00 0.00 0.00 81 1009.2
20260505032640 57 0.0 0.0 0.00 0.00 0.00 81 1009.2
20260505032139 57 0.0 0.0 0.00 0.00 0.00 81 1009.2
20260505031639 57 0.0 0.0 0.00 0.00 0.00 81 1009.2
20260505031137 57 0.0 0.0 0.00 0.00 0.00 80 1009.2
20260505030636 57 0.0 0.0 0.00 0.00 0.00 80 1009.2
20260505030136 57 0.0 0.0 0.00 0.00 0.00 80 1009.2
20260505025634 57 0.0 0.0 0.00 0.00 0.00 80 1009.2
20260505025133 57 0.0 0.0 0.00 0.00 0.00 80 1009.4
20260505024632 57 0.0 0.0 0.00 0.00 0.00 80 1009.4
20260505024132 57 0.0 0.0 0.00 0.00 0.00 80 1009.4
20260505023630 57 0.0 0.0 0.00 0.00 0.00 80 1009.3
20260505023129 57 0.0 0.0 0.00 0.00 0.00 80 1009.3
20260505022629 57 0.0 0.0 0.00 0.00 0.00 80 1009.3
20260505022127 58 0.0 0.0 0.00 0.00 0.00 80 1009.3
20260505021626 58 0.0 0.0 0.00 0.00 0.00 80 1009.3
20260505021126 58 0.0 0.0 0.00 0.00 0.00 79 1009.4
20260505020624 58 0.0 0.0 0.00 0.00 0.00 79 1009.4
20260505020125 58 0.0 0.0 0.00 0.00 0.00 79 1009.4
20260505015622 58 0.0 0.0 0.00 0.00 0.00 79 1009.4
20260505015122 58 0.0 0.0 0.00 0.00 0.00 79 1009.5
20260505014620 58 0.0 0.0 0.00 0.00 0.00 79 1009.5